Wind_Speed
44 43 43 41 40 39 39 37 36 35 34 34 33 33 33 32 32 32 32 32 31 31 31 31 31 31 31 31 31 31 31 31 31 32 32 32 31 32
45 45 44 43 42 41 40 39 38 38 36 35 35 35 35 34 34 33 33 33 33 33 33 33 34 34 34 33 33 33 33 33 33 33 33 34 34 34
47 46 45 45 44 44 42 41 40 40 39 37 37 36 36 36 36 36 35 35 35 35 35 35 35 35 35 35 35 35 35 36 35 35 36 36 36 37
50 48 47 46 46 45 43 43 42 42 41 39 39 38 37 37 37 37 37 36 36 36 36 36 36 37 37 37 37 37 37 37 38 38 38 38 39 40
50 49 49 48 47 46 44 43 42 43 42 41 40 39 39 39 38 38 38 38 37 37 37 38 38 38 38 38 38 38 38 39 40 40 40 41 42 42
51 51 51 49 48 46 46 44 44 44 44 43 42 41 41 41 41 40 40 40 40 40 40 40 40 40 40 41 40 41 41 41 42 42 43 44 44 45
52 52 51 50 49 48 47 46 45 46 46 45 44 44 43 43 43 43 42 42 42 42 42 42 42 43 43 43 43 43 43 43 44 44 45 46 47 47
53 53 52 51 50 49 49 48 47 46 46 46 46 45 45 45 45 44 45 44 44 44 44 44 44 44 45 45 45 45 45 46 46 46 47 48 49 50
54 53 54 53 52 51 51 50 49 49 48 47 47 47 47 47 46 46 46 46 46 45 46 46 46 47 47 47 47 48 48 48 49 49 49 50 51 52
53 53 53 53 53 53 52 52 51 50 50 49 49 48 48 48 49 49 48 47 47 47 48 48 48 48 49 49 49 50 50 51 51 52 52 53 53 53
52 52 52 52 53 53 53 53 52 51 50 50 50 49 49 50 50 49 49 48 49 49 49 49 49 49 50 50 50 51 52 53 53 54 54 55 54 54
53 52 52 52 52 52 53 53 52 52 51 51 51 50 50 50 49 48 49 49 49 49 49 50 50 50 51 51 51 52 53 53 54 54 55 54 53 53
53 53 52 52 52 52 52 53 52 52 52 52 51 50 50 49 49 49 49 50 50 50 51 51 51 51 52 52 52 53 54 54 54 54 53 53 53 53
53 53 52 52 52 52 51 51 52 53 54 53 53 52 51 51 51 51 51 51 51 52 52 52 52 53 53 53 53 53 54 54 54 54 53 54 54 54
53 53 53 52 52 52 52 52 52 53 54 55 54 53 52 52 53 53 53 53 53 52 52 52 53 53 53 54 54 54 54 54 54 54 54 55 55 55
55 54 54 53 53 53 53 53 52 52 52 54 54 54 54 54 54 55 55 54 54 53 53 53 53 54 54 54 54 54 54 54 54 54 55 55 56 56
55 55 55 54 54 54 53 53 52 52 53 53 54 55 55 55 55 55 55 55 55 54 54 54 54 54 54 54 54 53 54 54 55 55 55 55 56 56
54 55 54 54 54 53 53 53 52 52 52 53 54 55 55 55 55 55 55 55 55 55 55 55 54 53 53 53 53 53 54 54 55 55 56 56 55 55
54 54 54 54 53 53 53 53 53 53 53 53 53 54 54 54 54 54 55 55 55 54 54 53 53 52 52 52 52 53 54 54 54 54 54 54 54 54
50 51 51 52 51 51 51 52 52 52 52 52 53 53 53 53 53 53 54 54 54 54 54 53 53 53 52 52 52 53 54 54 53 53 53 53 53 54
47 47 48 48 49 49 49 49 50 50 51 51 51 50 51 51 51 52 52 53 53 53 53 53 53 53 53 53 53 53 53 53 53 53 53 53 53 53
44 45 45 46 46 46 46 46 47 47 48 48 48 48 49 49 49 50 51 51 52 52 52 53 53 52 52 53 53 52 52 52 52 53 53 53 54 53
43 43 43 44 44 44 44 44 44 44 45 45 46 46 47 47 48 49 50 51 51 51 51 51 51 52 52 52 51 51 51 50 51 51 52 53 54 54
Wind_Direction
242 242 244 245 246 249 252 253 255 255 257 259 262 264 266 268 271 273 275 275 275 276 278 279 281 283 284 285 286 287 289 290 292 293 294 294 295 296
242 243 244 245 247 249 252 253 254 256 257 259 261 264 266 268 270 272 273 274 276 277 277 278 280 281 282 283 284 285 287 289 289 290 291 292 293 295
241 242 244 246 248 250 252 253 254 257 258 259 261 263 265 267 269 271 272 274 275 277 277 279 279 280 281 282 283 284 285 287 288 289 290 291 292 293
241 242 244 246 248 249 251 252 254 256 258 259 261 263 265 267 268 270 272 273 275 276 277 277 278 279 281 282 283 283 284 286 287 288 289 290 292 293
241 243 245 246 247 248 250 252 253 256 257 259 261 263 265 267 268 270 272 273 274 275 276 276 276 278 279 281 282 283 284 285 286 287 287 289 291 292
242 243 245 245 246 248 250 252 254 256 258 260 261 263 265 266 268 269 271 272 273 274 275 276 276 277 278 279 281 283 284 284 285 286 287 288 289 291
243 244 244 245 247 248 250 252 254 256 259 260 262 264 265 266 267 269 270 271 272 274 274 275 276 277 278 279 280 281 282 283 285 286 287 287 288 290
244 245 245 246 247 248 250 251 254 256 258 260 262 265 265 266 267 269 270 271 272 272 274 274 275 276 278 278 279 280 281 283 284 286 287 288 288 290
245 246 246 246 248 248 250 252 254 256 258 260 262 264 265 266 267 269 270 270 271 272 272 274 275 276 278 279 279 281 282 283 284 285 286 287 288 289
245 246 247 247 248 249 251 253 254 256 258 260 262 263 263 264 266 268 269 270 271 272 273 274 275 276 278 279 280 281 282 283 284 285 286 287 288 289
246 246 247 248 248 250 251 254 255 257 259 260 262 262 262 264 267 268 269 270 271 272 274 274 274 276 277 278 280 281 282 283 283 284 285 286 287 288
246 247 247 248 249 251 253 254 256 257 258 259 261 262 263 265 266 268 269 271 272 272 274 274 275 276 277 278 280 281 282 282 283 284 285 286 286 287
246 247 248 249 250 252 254 255 256 256 257 259 260 261 263 264 266 267 269 271 272 272 274 275 276 277 278 279 280 281 282 283 283 284 285 285 286 287
246 247 248 249 250 252 253 254 255 256 257 258 259 261 263 264 265 266 268 271 272 273 274 275 276 277 278 279 280 281 282 284 284 285 285 286 287 288
247 248 249 250 251 251 253 255 256 257 258 258 259 260 262 263 265 266 268 269 271 272 274 275 276 278 279 279 280 281 282 283 284 285 285 286 287 288
247 248 250 251 252 253 255 257 257 258 259 259 260 261 262 263 265 266 268 269 270 271 273 274 276 277 278 280 281 281 282 283 284 284 285 286 287 288
247 248 250 251 253 255 256 257 258 259 260 260 261 261 263 264 265 266 267 268 270 271 273 274 275 277 279 280 280 281 283 284 284 285 285 286 287 288
248 248 250 252 254 256 257 257 257 259 260 261 262 263 264 264 265 266 268 269 270 271 273 274 276 277 278 279 280 281 283 284 285 286 286 286 287 288
249 250 251 252 255 256 257 257 258 260 262 263 264 264 265 266 266 268 268 269 270 271 272 273 275 276 278 279 281 282 284 285 286 286 287 287 288 289
248 250 251 253 255 256 257 258 259 261 262 264 264 265 265 266 267 268 269 269 270 271 272 273 275 276 277 279 281 282 284 285 285 286 287 288 289 291
248 250 252 253 255 257 258 259 261 262 263 264 265 265 266 267 267 268 268 269 270 271 272 273 275 276 277 279 281 283 284 285 286 287 288 289 290 291
249 250 252 253 254 256 258 260 261 262 263 264 265 265 266 267 267 268 268 268 270 271 272 273 275 276 277 279 281 283 284 284 285 287 288 289 291 291
249 251 253 253 255 257 258 260 261 262 263 264 265 266 267 267 267 268 269 270 271 272 272 273 275 277 278 280 281 282 284 284 286 287 289 290 291 293
Height
5752 5756 5761 5765 5768 5772 5775 5778 5781 5783 5785 5786 5787 5788 5789 5790 5791 5791 5791 5791 5791 5791 5791 5790 5790 5789 5788 5787 5785 5784 5783 5781 5780 5778 5776 5774 5772 5770
5742 5746 5751 5755 5758 5762 5765 5768 5771 5774 5776 5778 5779 5780 5781 5782 5783 5783 5783 5783 5783 5783 5783 5782 5782 5781 5780 5779 5777 5776 5775 5773 5772 5770 5768 5766 5764 5761
5731 5736 5740 5744 5748 5751 5755 5758 5761 5764 5766 5769 5770 5771 5772 5773 5773 5774 5774 5774 5774 5774 5774 5773 5773 5772 5771 5770 5769 5768 5766 5765 5763 5761 5759 5757 5755 5753
5720 5725 5730 5734 5738 5741 5744 5748 5751 5753 5756 5759 5760 5761 5762 5763 5764 5765 5765 5765 5765 5765 5764 5764 5764 5763 5762 5761 5760 5758 5757 5755 5754 5752 5750 5748 5746 5743
5709 5714 5718 5723 5727 5731 5734 5737 5740 5743 5745 5748 5750 5751 5752 5753 5754 5755 5755 5755 5755 5755 5755 5754 5754 5753 5752 5751 5750 5749 5747 5746 5744 5742 5740 5738 5736 5733
5697 5702 5707 5711 5715 5719 5723 5726 5729 5732 5734 5737 5739 5741 5742 5743 5744 5745 5745 5745 5745 5745 5744 5744 5744 5743 5742 5741 5740 5739 5737 5735 5733 5732 5729 5727 5725 5722
5686 5690 5695 5699 5703 5707 5711 5715 5718 5721 5723 5725 5728 5730 5731 5732 5733 5733 5734 5734 5734 5734 5733 5733 5733 5732 5731 5730 5729 5727 5726 5724 5722 5720 5718 5715 5713 5710
5673 5678 5683 5687 5691 5695 5699 5703 5706 5709 5711 5714 5716 5718 5720 5720 5721 5722 5722 5723 5723 5723 5722 5722 5721 5720 5719 5718 5717 5716 5714 5712 5711 5708 5706 5703 5701 5698
5661 5666 5670 5675 5679 5683 5687 5690 5694 5696 5699 5702 5704 5706 5707 5709 5709 5710 5710 5710 5711 5711 5710 5710 5709 5708 5707 5706 5705 5703 5702 5700 5698 5696 5694 5691 5688 5685
5648 5653 5658 5662 5666 5670 5674 5677 5680 5683 5686 5689 5691 5693 5694 5695 5696 5697 5697 5698 5698 5698 5698 5698 5697 5696 5695 5693 5692 5690 5688 5687 5685 5683 5680 5677 5674 5671
5636 5641 5645 5650 5654 5658 5661 5665 5668 5670 5672 5675 5677 5679 5680 5682 5683 5684 5684 5684 5685 5685 5684 5684 5684 5683 5682 5680 5678 5677 5675 5673 5670 5668 5666 5663 5660 5657
5624 5628 5633 5637 5641 5644 5648 5651 5655 5658 5660 5662 5664 5666 5667 5668 5669 5670 5671 5671 5671 5672 5671 5670 5670 5669 5668 5667 5665 5663 5660 5658 5656 5654 5651 5649 5646 5643
5611 5616 5620 5624 5628 5631 5634 5638 5641 5644 5646 5648 5650 5652 5654 5655 5656 5657 5657 5657 5658 5658 5658 5657 5656 5655 5654 5653 5651 5648 5646 5643 5641 5639 5636 5634 5631 5629
5598 5603 5607 5610 5614 5617 5621 5624 5627 5629 5632 5634 5636 5638 5640 5641 5642 5642 5643 5643 5643 5644 5643 5642 5642 5641 5640 5638 5637 5634 5631 5629 5627 5624 5622 5619 5616 5613
5584 5589 5593 5597 5600 5603 5606 5610 5612 5614 5617 5619 5622 5624 5626 5627 5628 5628 5629 5629 5629 5629 5629 5628 5627 5626 5625 5624 5622 5620 5617 5615 5612 5609 5607 5604 5602 5599
5570 5575 5579 5583 5586 5589 5593 5595 5598 5600 5602 5605 5607 5609 5611 5612 5613 5614 5614 5614 5615 5615 5614 5613 5612 5611 5610 5609 5607 5605 5603 5600 5598 5595 5592 5589 5586 5583
5555 5560 5564 5568 5571 5575 5578 5581 5583 5585 5588 5590 5592 5594 5595 5597 5598 5598 5599 5599 5600 5600 5599 5598 5597 5596 5595 5594 5592 5590 5588 5586 5583 5580 5577 5574 5571 5567
5541 5546 5550 5553 5557 5560 5564 5566 5569 5571 5573 5575 5576 5578 5580 5581 5582 5583 5584 5584 5585 5585 5584 5583 5583 5582 5581 5580 5578 5576 5574 5571 5568 5565 5562 5559 5557 5553
5527 5532 5535 5539 5543 5546 5549 5552 5554 5556 5558 5560 5562 5563 5565 5566 5567 5568 5569 5569 5570 5570 5569 5568 5568 5567 5566 5566 5564 5561 5559 5556 5553 5550 5547 5544 5542 5538
5514 5518 5521 5525 5528 5531 5534 5537 5539 5541 5543 5545 5547 5548 5549 5551 5552 5553 5554 5554 5555 5554 5554 5554 5554 5553 5552 5551 5549 5547 5543 5541 5538 5536 5533 5530 5527 5523
5501 5505 5508 5512 5515 5518 5520 5523 5525 5527 5529 5530 5532 5533 5534 5536 5537 5538 5538 5539 5539 5540 5540 5540 5539 5537 5536 5535 5534 5533 5529 5525 5523 5520 5518 5515 5513 5510
5489 5492 5496 5499 5502 5504 5507 5509 5511 5513 5515 5516 5518 5519 5520 5521 5522 5523 5523 5524 5525 5525 5525 5525 5523 5522 5521 5520 5519 5517 5515 5511 5508 5505 5502 5499 5496 5494
5477 5480 5483 5486 5489 5492 5494 5496 5498 5500 5502 5503 5504 5505 5506 5507 5508 5508 5509 5509 5510 5510 5510 5510 5509 5508 5506 5505 5504 5502 5500 5497 5494 5492 5488 5484 5481 5478